Regional Weather Roundup
Issued by NWS Newport/Morehead, NC

Current Version | Previous Version | Graphics & Text | Print | Product List | Glossary Off
Versions: 1 2 3 4 5 6 7 8 9 10 11 12 13 14 15 16 17 18 19 20 21 22 23 24 25 26 27 28 29 30 31 32 33 34 35 36 37 38 39 40 41 42 43 44 45 46 47 48 49 50

000
ASUS42 KMHX 241026
RWRMHX
WEATHER ROUNDUP FOR EASTERN NORTH CAROLINA
NATIONAL WEATHER SERVICE NEWPORT/MOREHEAD CITY NC
500 AM EST SAT FEB 24 2018

NOTE: "FAIR" INDICATES FEW OR NO CLOUDS BELOW 12,000 FEET
WITH NO SIGNIFICANT WEATHER AND/OR OBSTRUCTIONS TO VISIBILITY

NCZ015>017-031-032-045>047-102-103-241100-
NORTH COAST

CITY           SKY/WX    TMP DP  RH WIND       PRES   REMARKS
EDENTON        CLOUDY    63  63 100 SW6       30.25R
ELIZABETH CITY CLOUDY    61  61 100 SW7       30.23S FOG
KITTY HAWK     FAIR     N/A N/A N/A W5        30.23S
MANTEO         FAIR      58  57  99 SW3       30.25R

$$

NCZ045>047-081-094-103-104-241100-
CENTRAL COAST

CITY           SKY/WX    TMP DP  RH WIND       PRES   REMARKS
FRISCO         FAIR      64  63  96 SW8       30.24F

$$

NCZ095-097-098-100-101-241100-
SOUTHERN COAST

CITY           SKY/WX    TMP DP  RH WIND       PRES   REMARKS
BEAUFORT       CLOUDY    64  63  96 SW8       30.25F
CEDAR ISLAND   NOT AVBL
JACKSONVILLE   CLOUDY    65  64  97 SW6       30.25S
PINEY ISLAND   NOT AVBL
WILMINGTON     CLOUDY    64  63  96 S3        30.26S


$$

NCZ011>013-027>030-043-044-078>080-089-090>093-098-241100-
COASTAL PLAIN

CITY           SKY/WX    TMP DP  RH WIND       PRES   REMARKS
AHOSKIE        CLOUDY    61  61 100 SW3       30.22S
CLINTON        CLOUDY    62  62 100 SW6       30.26S
ELIZABETHTOWN  NOT AVBL
GOLDSBORO      CLOUDY    63  61  94 SW7       30.22F
GREENVILLE     CLOUDY    61  61 100 SW8       30.24F
HAVELOCK       MOCLDY    64  64 100 SW7       30.26S
KENANSVILLE    CLOUDY    61  61 100 CALM      30.25S FOG
KINSTON        CLOUDY    62  62 100 SW7       30.25S
NEW BERN       FOG       57  57 100 CALM      30.26S VSB 1/2
RICHLANDS      MOCLDY    62  61  96 SW7       30.26S
ROCKY MOUNT    CLOUDY    61  61 100 SW8       30.23S
WASHINGTON     CLOUDY    62  61  96 SW5       30.25S
WHITEVILLE     FOG       62  62  98 S6        30.25F VSB 1/2

$$

AMZ130-135-150-152-154-156-158-170-250-252-270-ANZ085-086-088-633-658-670-241100-
MARINE OBSERVATIONS

STATION/POSITION TIME  TEMP    WIND        PRES    WAVE   SWELL
                       AIR SEA DIR/SP/G            HT/PER HT/PER
                 (UTC) (F)     (DEG/KT/KT) (MB)    (FT/S) (FT/S)
CHESAPEAKE LIGHT NOT AVBL
64 E VA BEACH    0950   51 49  220/  6/  8 1024.1    4/ 8   3/ 8
DUCK             1000   57 45  230/  7/  9 1023.5
2 E DUCK         1000      46                N/A     3/ 9   2/11
OREGON INLET     1000          220/  6/  7 1024.0
13E OREGON INLT  0948      49                N/A     4/ 8   3/ 8
HATTERAS CG      1000   64 61  230/  7/  9 1024.0
DIAMOND BUOY     1010   71 73  250/ 14/ 17 1024.4
CAPE LOOKOUT     1000          230/  6/  8 1024.8
BEAUFORT LAB     1000   64 60  220/  3/  6 1024.6
30 SE NEW RVR IN 0908   71 69  220/  8/ 12 1024.8
30 SE NEW RVR IN 1000      69                N/A     5/10   2/11
27 SE WRIGHTSVLE 1008   67 69  230/ 12/ 16 1024.9
5 SE WRIGHTSVLE  NOT AVBL
225 S CAPE HAT   0950   71 73  180/ 10/ 12 1025.8    5/ 9   5/ 9
41 SE CHARLESTON 1010   69 68  170/  4/  6 1024.3

$$




USA.gov is the U.S. government's official web portal to all federal, state and local government web resources and services.